User: anonymous   Login
Location: Podia
(1.5569°N, 32.3469°E)
Time: 20:08:55
(UTC+00:00)
Language:

Cosmos 2346 Rocket - Orbit

View from above orbital plane
View from above orbital plane
View from above satellite
View from above satellite

Ground track
Ground track

The orbit data is extracted from the following two-line orbital elements,

1 24955U 97052C   21169.60330338  .00000037  00000-0  20249-4 0  9994
2 24955  82.9217 253.0335 0028953 332.1972  27.7639 13.81559662196445
Epoch (UTC): 18 June 2021 14:28:45
Eccentricity: 0.0028953
inclination: 82.9217°
perigee height: 937 km
apogee height: 979 km
right ascension of ascending node: 253.0335°
argument of perigee: 332.1972°
revolutions per day: 13.81559662
mean anomaly at epoch: 27.7639°
orbit number at epoch: 19644

The dashed part of the orbit path shows where the satellite is in the earth's shadow,  

DLR